Location: The Saddle
(36.8333°N, 80.3417°W)
Time: 09:54:32
(UTC-04:00)

A-11 Canister half - All Passes

Search period start: 13 April 2026 00:00
Search period end: 23 April 2026 00:00
Orbit: 1514 x 1685 km, 47.2° (Epoch: 13 April)

Date Brightness Start Highest point End Pass type
(mag) Time Alt. Az. Time Alt. Az. Time Alt. Az.
13 Apr - 05:47:35 10° SSW 05:56:00 41° SE 06:04:35 10° ENE visible
13 Apr - 07:51:10 10° WSW 08:00:28 74° NNW 08:10:06 10° ENE daylight
13 Apr - 09:57:37 10° WNW 10:06:37 46° N 10:15:57 10° ENE daylight
13 Apr - 12:03:41 10° WNW 12:13:12 58° NNE 12:23:02 10° E daylight
13 Apr - 14:08:48 10° WNW 14:18:30 66° SW 14:28:27 10° SE daylight
13 Apr - 16:16:15 10° W 16:22:13 18° SW 16:28:17 10° SSW daylight
14 Apr - 05:24:47 10° SSW 05:33:02 38° SE 05:41:26 10° ENE visible
14 Apr - 07:28:05 10° WSW 07:37:23 77° NNW 07:47:01 10° ENE daylight
14 Apr - 09:34:29 10° WNW 09:43:28 46° N 09:52:47 10° ENE daylight
14 Apr - 11:40:38 10° WNW 11:50:04 56° NNE 11:59:49 10° E daylight
14 Apr - 13:45:45 10° WNW 13:55:27 70° SW 14:05:27 10° SE daylight
14 Apr - 15:52:49 10° W 15:59:15 20° SW 16:05:48 10° SSW daylight
15 Apr - 05:02:00 10° SSW 05:10:04 35° SE 05:18:15 10° ENE visible
15 Apr - 07:05:02 10° WSW 07:14:19 80° NNW 07:23:55 10° ENE daylight
15 Apr - 09:11:21 10° W 09:20:19 46° N 09:29:36 10° ENE daylight
15 Apr - 11:17:34 10° WNW 11:26:56 54° NNE 11:36:37 10° E daylight
15 Apr - 13:22:41 10° WNW 13:32:23 73° SW 13:42:25 10° SE daylight
15 Apr - 15:29:27 10° W 15:36:17 21° SW 15:43:15 10° S daylight
16 Apr - 04:39:15 10° S 04:47:07 33° SE 04:55:04 10° ENE visible
16 Apr - 06:41:59 10° WSW 06:51:16 83° NNW 07:00:51 10° ENE daylight
16 Apr - 08:48:13 10° W 08:57:10 47° N 09:06:27 10° ENE daylight
16 Apr - 10:54:29 10° WNW 11:03:48 53° NNE 11:13:25 10° E daylight
16 Apr - 12:59:38 10° WNW 13:09:21 77° SW 13:19:22 10° SE daylight
16 Apr - 15:06:07 10° W 15:13:19 23° SW 15:20:38 10° S daylight
17 Apr - 04:16:31 10° S 04:24:09 30° SE 04:31:53 10° ENE visible
17 Apr - 06:18:57 10° WSW 06:28:14 87° NNW 06:37:46 10° ENE visible
17 Apr - 08:25:05 10° W 08:34:02 48° N 08:43:17 10° ENE daylight
17 Apr - 10:31:26 10° WNW 10:40:39 51° NNE 10:50:13 10° E daylight
17 Apr - 12:36:34 10° WNW 12:46:18 81° SW 12:56:19 10° SE daylight
17 Apr - 14:42:51 10° WNW 14:50:20 25° SW 14:57:59 10° S daylight
18 Apr - 03:53:49 10° S 04:01:13 28° SE 04:08:39 10° ENE visible
18 Apr - 05:55:56 10° SW 06:05:11 89° SE 06:14:42 10° ENE visible
18 Apr - 08:01:56 10° W 08:10:54 48° NNW 08:20:09 10° ENE daylight
18 Apr - 10:08:21 10° WNW 10:17:31 50° NNE 10:27:01 10° E daylight
18 Apr - 12:13:32 10° WNW 12:23:13 85° SW 12:33:16 10° SE daylight
18 Apr - 14:19:36 10° WNW 14:27:21 27° SW 14:35:16 10° S daylight
19 Apr - 03:31:09 10° S 03:38:15 26° SE 03:45:25 10° ENE visible
19 Apr - 05:32:55 10° SW 05:42:10 85° SE 05:51:37 10° ENE visible
19 Apr - 07:38:48 10° W 07:47:46 49° NNW 07:57:01 10° ENE daylight
19 Apr - 09:45:16 10° WNW 09:54:23 49° NNE 10:03:48 10° E daylight
19 Apr - 11:50:29 10° WNW 12:00:10 89° SW 12:10:11 10° SE daylight
19 Apr - 13:56:22 10° WNW 14:04:22 29° SW 14:12:33 10° S daylight
20 Apr - 03:08:31 10° S 03:15:20 24° SE 03:22:09 10° ENE visible
20 Apr - 05:09:55 10° SW 05:19:07 81° SE 05:28:33 10° ENE visible
20 Apr - 07:15:41 10° W 07:24:39 50° NNW 07:33:53 10° ENE daylight
20 Apr - 09:22:11 10° WNW 09:31:14 48° N 09:40:36 10° E daylight
20 Apr - 11:27:27 10° WNW 11:37:06 88° NNE 11:47:05 10° SE daylight
20 Apr - 13:33:10 10° WNW 13:41:22 32° SW 13:49:47 10° S daylight
21 Apr - 02:45:55 10° S 02:52:23 22° SE 02:58:51 10° E visible
21 Apr - 04:46:55 10° SW 04:56:06 77° SE 05:05:29 10° ENE visible
21 Apr - 06:52:33 10° W 07:01:32 52° NNW 07:10:47 10° ENE daylight
21 Apr - 08:59:06 10° WNW 09:08:06 47° N 09:17:24 10° E daylight
21 Apr - 11:04:24 10° WNW 11:14:01 84° NNE 11:23:59 10° ESE daylight
21 Apr - 13:10:01 10° WNW 13:18:23 34° SW 13:26:59 10° S daylight
22 Apr - 02:23:23 10° SSE 02:29:26 20° SE 02:35:30 10° E visible
22 Apr - 04:23:56 10° SW 04:33:06 73° SE 04:42:24 10° ENE visible
22 Apr - 06:29:25 10° W 06:38:25 53° NNW 06:47:40 10° ENE daylight
22 Apr - 08:36:01 10° WNW 08:44:57 46° N 08:54:12 10° E daylight
22 Apr - 10:41:22 10° WNW 10:50:57 81° NNE 11:00:53 10° ESE daylight
22 Apr - 12:46:51 10° WNW 12:55:23 37° SW 13:04:10 10° SSE daylight
